EN

Hourly Weather Altoona

Today, 19 January, Tuesday

Time Temperature Precipitation Wind Pressure Humidity
00:00 -5°C° 0 mm 4 mps 728 mmHg 83%
01:00 -5°C° 0 mm 3 mps 728 mmHg 85%
02:00 -5°C° 0 mm 3 mps 728 mmHg 85%
03:00 -5°C° 0 mm 3 mps 728 mmHg 86%
04:00 -5°C° 0 mm 3 mps 728 mmHg 87%
05:00 -5°C° 0 mm 3 mps 729 mmHg 87%
06:00 -5°C° 0 mm 3 mps 729 mmHg 88%
07:00 -2°C° 0 mm 1 mps 729 mmHg 89%
08:00 -4°C° 0.1 mm 3 mps 729 mmHg 85%
09:00 -3°C° 0.1 mm 4 mps 730 mmHg 80%
10:00 -4°C° 0.1 mm 5 mps 730 mmHg 75%
11:00 -2°C° 0 mm 5 mps 730 mmHg 72%
12:00 -2°C° 0 mm 5 mps 730 mmHg 69%
13:00 -1°C° 0 mm 5 mps 730 mmHg 66%
14:00 -1°C° 0 mm 5 mps 730 mmHg 66%
15:00 -1°C° 0 mm 5 mps 730 mmHg 67%
16:00 -1°C° 0 mm 5 mps 730 mmHg 68%
17:00 -2°C° 0 mm 5 mps 730 mmHg 71%
18:00 -3°C° 0 mm 4 mps 730 mmHg 75%
19:00 -4°C° 0 mm 4 mps 730 mmHg 78%
20:00 -4°C° 0 mm 4 mps 730 mmHg 80%
21:00 -4°C° 0 mm 3 mps 730 mmHg 81%
22:00 -4°C° 0 mm 3 mps 729 mmHg 82%
23:00 -4°C° 0 mm 3 mps 728 mmHg 85%

Tomorrow, 20 January, Wednesday

Time Temperature Precipitation Wind Pressure Humidity
00:00 -4°C° 0 mm 3 mps 728 mmHg 87%
01:00 -5°C° 0 mm 3 mps 727 mmHg 90%
02:00 -4°C° 0.2 mm 3 mps 726 mmHg 90%
03:00 -4°C° 0.2 mm 4 mps 726 mmHg 91%
04:00 -4°C° 0.2 mm 4 mps 725 mmHg 91%
05:00 -5°C° 0.2 mm 5 mps 726 mmHg 88%
06:00 -6°C° 0.2 mm 5 mps 726 mmHg 84%
07:00 -6°C° 0.2 mm 6 mps 727 mmHg 80%
08:00 -6°C° 0.1 mm 6 mps 727 mmHg 77%
09:00 -6°C° 0.1 mm 6 mps 728 mmHg 74%
10:00 -8°C° 0.1 mm 6 mps 728 mmHg 72%
11:00 -6°C° 0 mm 6 mps 729 mmHg 70%
12:00 -6°C° 0 mm 6 mps 729 mmHg 68%
13:00 -6°C° 0 mm 6 mps 729 mmHg 66%
14:00 -6°C° 0 mm 6 mps 729 mmHg 67%
15:00 -6°C° 0 mm 5 mps 729 mmHg 68%
16:00 -7°C° 0 mm 5 mps 729 mmHg 70%
17:00 -7°C° 0 mm 4 mps 729 mmHg 74%
18:00 -7°C° 0 mm 3 mps 729 mmHg 79%
19:00 -7°C° 0 mm 2 mps 728 mmHg 84%
20:00 -7°C° 0 mm 2 mps 728 mmHg 85%
21:00 -7°C° 0 mm 2 mps 728 mmHg 86%
22:00 -7°C° 0 mm 2 mps 728 mmHg 87%
23:00 -7°C° 0 mm 3 mps 727 mmHg 87%

Day after tomorrow, 21 January, Thursday

Time Temperature Precipitation Wind Pressure Humidity
00:00 -7°C° 0 mm 3 mps 726 mmHg 87%
01:00 -7°C° 0 mm 3 mps 726 mmHg 86%
02:00 -7°C° 0 mm 3 mps 725 mmHg 85%
03:00 -7°C° 0 mm 3 mps 724 mmHg 83%
04:00 -7°C° 0 mm 3 mps 724 mmHg 82%
05:00 -7°C° 0 mm 3 mps 723 mmHg 83%
06:00 -6°C° 0 mm 3 mps 723 mmHg 84%
07:00 -6°C° 0 mm 3 mps 722 mmHg 85%
08:00 -5°C° 0 mm 4 mps 722 mmHg 84%
09:00 -5°C° 0 mm 5 mps 722 mmHg 83%
10:00 -4°C° 0 mm 5 mps 721 mmHg 82%
11:00 -2°C° 0 mm 5 mps 721 mmHg 81%
12:00 -2°C° 0 mm 5 mps 720 mmHg 80%
13:00 -1°C° 0 mm 5 mps 720 mmHg 79%
14:00 -1°C° 0 mm 5 mps 719 mmHg 80%
15:00 -1°C° 0 mm 5 mps 719 mmHg 81%
16:00 0°C° 0 mm 5 mps 719 mmHg 81%
17:00 -1°C° 0 mm 5 mps 719 mmHg 82%
18:00 -1°C° 0 mm 5 mps 719 mmHg 84%
19:00 -2°C° 0 mm 6 mps 719 mmHg 85%
20:00 -2°C° 0 mm 6 mps 719 mmHg 84%
21:00 -2°C° 0 mm 6 mps 719 mmHg 82%
22:00 -2°C° 0 mm 6 mps 719 mmHg 81%
23:00 -3°C° 0 mm 6 mps 719 mmHg 81%

22 January, Friday

Time Temperature Precipitation Wind Pressure Humidity
00:00 -3°C° 0 mm 7 mps 719 mmHg 81%
01:00 -4°C° 0 mm 7 mps 720 mmHg 82%
02:00 -5°C° 0 mm 6 mps 720 mmHg 82%
03:00 -5°C° 0 mm 6 mps 720 mmHg 82%
04:00 -6°C° 0 mm 6 mps 720 mmHg 83%
05:00 -6°C° 0 mm 5 mps 721 mmHg 83%
06:00 -6°C° 0 mm 5 mps 721 mmHg 84%
07:00 -5°C° 0 mm 4 mps 722 mmHg 84%
08:00 -6°C° 0 mm 5 mps 723 mmHg 83%
09:00 -5°C° 0 mm 5 mps 723 mmHg 82%
10:00 -5°C° 0 mm 5 mps 723 mmHg 81%
11:00 -5°C° 0.1 mm 5 mps 723 mmHg 79%
12:00 -4°C° 0.1 mm 5 mps 724 mmHg 76%
13:00 -4°C° 0.1 mm 5 mps 724 mmHg 73%
14:00 -4°C° 0.1 mm 5 mps 724 mmHg 74%
15:00 -4°C° 0.1 mm 5 mps 724 mmHg 75%
16:00 -4°C° 0.1 mm 5 mps 724 mmHg 76%
17:00 -5°C° 0.1 mm 5 mps 725 mmHg 77%
18:00 -6°C° 0.1 mm 5 mps 726 mmHg 79%
19:00 -7°C° 0.1 mm 5 mps 726 mmHg 81%
20:00 -8°C° 0 mm 5 mps 727 mmHg 80%
21:00 -10°C° 0 mm 5 mps 727 mmHg 80%
22:00 -10°C° 0 mm 5 mps 728 mmHg 79%
23:00 -11°C° 0 mm 5 mps 728 mmHg 79%

23 January, Saturday

Time Temperature Precipitation Wind Pressure Humidity
00:00 -11°C° 0 mm 5 mps 728 mmHg 78%
01:00 -11°C° 0 mm 5 mps 728 mmHg 77%
02:00 -12°C° 0 mm 5 mps 729 mmHg 77%
03:00 -12°C° 0 mm 5 mps 729 mmHg 78%
04:00 -12°C° 0 mm 5 mps 729 mmHg 78%
05:00 -12°C° 0 mm 5 mps 730 mmHg 78%
06:00 -12°C° 0 mm 5 mps 731 mmHg 79%
07:00 -13°C° 0 mm 5 mps 732 mmHg 79%
08:00 -12°C° 0 mm 6 mps 732 mmHg 77%
09:00 -11°C° 0 mm 6 mps 733 mmHg 75%
10:00 -11°C° 0 mm 6 mps 733 mmHg 73%
11:00 -10°C° 0 mm 6 mps 734 mmHg 71%
12:00 -9°C° 0 mm 6 mps 734 mmHg 69%
13:00 -8°C° 0 mm 6 mps 734 mmHg 67%
14:00 -7°C° 0 mm 5 mps 734 mmHg 69%
15:00 -7°C° 0 mm 5 mps 734 mmHg 70%
16:00 -7°C° 0 mm 4 mps 734 mmHg 72%
17:00 -8°C° 0 mm 4 mps 735 mmHg 76%
18:00 -8°C° 0 mm 3 mps 735 mmHg 80%
19:00 -9°C° 0 mm 3 mps 735 mmHg 84%
20:00 -9°C° 0 mm 3 mps 736 mmHg 84%
21:00 -8°C° 0 mm 2 mps 736 mmHg 85%
22:00 -9°C° 0 mm 2 mps 736 mmHg 85%
23:00 -9°C° 0 mm 2 mps 736 mmHg 85%

24 January, Sunday

Time Temperature Precipitation Wind Pressure Humidity
00:00 -9°C° 0 mm 2 mps 736 mmHg 84%
01:00 -8°C° 0 mm 1 mps 736 mmHg 84%
02:00 -8°C° 0 mm 1 mps 735 mmHg 84%
03:00 -8°C° 0 mm 1 mps 735 mmHg 84%
04:00 -8°C° 0 mm 1 mps 735 mmHg 84%
05:00 -8°C° 0 mm 0 mps 735 mmHg 84%
06:00 -9°C° 0 mm 0 mps 735 mmHg 84%
07:00 -9°C° 0 mm 0 mps 735 mmHg 85%
08:00 -8°C° 0 mm 0 mps 735 mmHg 78%
09:00 -6°C° 0 mm 0 mps 735 mmHg 70%
10:00 -5°C° 0 mm 0 mps 735 mmHg 63%
11:00 -4°C° 0 mm 0 mps 734 mmHg 59%
12:00 -1°C° 0 mm 1 mps 734 mmHg 54%
13:00 0°C° 0 mm 1 mps 733 mmHg 49%
14:00 0°C° 0 mm 1 mps 732 mmHg 50%
15:00 0°C° 0 mm 1 mps 732 mmHg 50%
16:00 0°C° 0 mm 1 mps 731 mmHg 51%
17:00 0°C° 0.1 mm 1 mps 731 mmHg 55%
18:00 -1°C° 0.1 mm 1 mps 731 mmHg 58%
19:00 -1°C° 0.1 mm 1 mps 731 mmHg 61%
20:00 -1°C° 0 mm 1 mps 730 mmHg 63%
21:00 -2°C° 0 mm 1 mps 730 mmHg 64%
22:00 -2°C° 0 mm 1 mps 729 mmHg 66%
23:00 -2°C° 0 mm 1 mps 729 mmHg 68%
Show more